Weather History for Muncie, IN

Change the Weather History Date:

Thursday, April 7, 2011

  Actual Average Record
Temperature  
Mean Temperature 44 °F 48 °F  
Max Temperature 50 °F 58 °F 84 °F (2001)
Min Temperature 38 °F 38 °F 10 °F (1982)
Degree Days  
Heating Degree Days 21 17  
Month to date heating degree days 129 127  
Since 1 July heating degree days 5434 5297  
Cooling Degree Days 0 0  
Month to date cooling degree days 0 0  
Year to date cooling degree days 0 1  
Moisture  
Dew Point 39 °F    
Average Humidity 82    
Maximum Humidity 93    
Minimum Humidity 71    
Precipitation  
Precipitation T in 0.12 in 1.80 in (1972)
Month to date precipitation 1.00 0.84  
Year to date precipitation 9.88 8.33  
Sea Level Pressure  
Sea Level Pressure 30.01 in    
Wind  
Wind Speed 10 mph (ENE)    
Max Wind Speed 14 mph    
Max Gust Speed -    
Visibility 5 miles    
Events Fog , Rain    
T = Trace of Precipitation, MM = Missing Value Source: NWS Daily Summary

Daily Weather History Graph

Daily Weather History Graph

Search for Another Location

Airport:

Trip Planner

Search our weather history database for the weather conditions in past years. The results will help you decide how hot, cold, wet, or windy it might be!

Date:

Astronomy

Apr. 07, 2011 Rise Set
Actual Time 7:16 AM EDT 8:11 PM EDT
Civil Twilight 6:48 AM EDT 8:39 PM EDT
Nautical Twilight 6:15 AM EDT 9:12 PM EDT
Astronomical Twilight 5:41 AM EDT 9:46 PM EDT
Moon 9:11 AM EDT (4/7) No Moon Set
Length of Visible Light 13h 51m
Length of Day
12h 55m
Waxing Crescent, 15% of the Moon is Illuminated
Apr 7
Waxing Crescent
Apr 11
First Quarter
Apr 17
Full
Apr 24
Last Quarter
May 3
New

Hourly Weather History & Observations

Time (EDT) Temp. Windchill Dew Point Humidity Pressure Visibility Wind Dir Wind Speed Gust Speed Precip Events Conditions
12:53 AM 48.0 °F - 39.9 °F 74% 29.89 in 10.0 mi ENE 3.5 mph - N/A   Clear
1:53 AM 45.0 °F 41.2 °F 39.9 °F 82% 29.90 in 9.0 mi ENE 6.9 mph - N/A   Clear
2:53 AM 44.1 °F 40.1 °F 39.0 °F 82% 29.90 in 8.0 mi ENE 6.9 mph - N/A   Scattered Clouds
3:53 AM 43.0 °F 39.5 °F 37.9 °F 82% 29.90 in 7.0 mi ENE 5.8 mph - N/A   Clear
4:53 AM 41.0 °F 37.1 °F 37.9 °F 89% 29.92 in 7.0 mi NE 5.8 mph - N/A   Clear
5:53 AM 39.9 °F 35.8 °F 37.0 °F 89% 29.94 in 4.0 mi NE 5.8 mph - N/A   Clear
6:53 AM 39.0 °F 34.8 °F 37.0 °F 93% 29.97 in 4.0 mi ENE 5.8 mph - N/A   Clear
7:28 AM 39.2 °F 35.9 °F 37.4 °F 93% 30.01 in 2.5 mi NE 4.6 mph - N/A   Clear
7:48 AM 39.2 °F 32.5 °F 37.4 °F 93% 30.02 in 1.8 mi NE 10.4 mph - N/A   Scattered Clouds
7:53 AM 39.0 °F 31.8 °F 37.0 °F 93% 30.02 in 1.5 mi NE 11.5 mph - N/A   Mostly Cloudy
8:53 AM 39.0 °F 31.4 °F 37.9 °F 96% 30.04 in 1.0 mi ENE 12.7 mph - N/A   Overcast
9:15 AM 39.2 °F 31.2 °F 37.4 °F 93% 30.04 in 0.8 mi East 13.8 mph - N/A   Overcast
9:23 AM 39.2 °F 32.0 °F 37.4 °F 93% 30.05 in 1.0 mi East 11.5 mph - N/A   Overcast
9:53 AM 39.9 °F 32.1 °F 37.9 °F 93% 30.06 in 1.0 mi NE 13.8 mph - N/A   Overcast
10:00 AM 39.2 °F 31.6 °F 37.4 °F 93% 30.06 in 0.5 mi NE 12.7 mph - N/A Fog Fog
10:29 AM 41.0 °F 34.7 °F 39.2 °F 93% 30.07 in 1.2 mi East 10.4 mph - N/A   Overcast
10:51 AM 41.0 °F 35.2 °F 39.2 °F 93% 30.07 in 2.0 mi ENE 9.2 mph - N/A   Overcast
10:53 AM 41.0 °F 34.7 °F 39.0 °F 93% 30.07 in 2.0 mi ENE 10.4 mph - N/A   Overcast
11:53 AM 42.1 °F 35.7 °F 39.0 °F 89% 30.08 in 2.5 mi ENE 11.5 mph - N/A   Overcast
12:05 PM 42.8 °F 36.2 °F 39.2 °F 87% 30.07 in 3.0 mi East 12.7 mph - N/A   Overcast
12:53 PM 48.0 °F - 41.0 °F 77% 30.06 in 4.0 mi ENE 8.1 mph - N/A   Haze
1:53 PM 46.9 °F - 39.9 °F 77% 30.06 in 8.0 mi ENE 10.4 mph - N/A   Clear
2:53 PM 48.0 °F - 39.9 °F 74% 30.06 in 10.0 mi ENE 11.5 mph - N/A   Clear
3:53 PM 48.9 °F - 41.0 °F 74% 30.05 in 9.0 mi East 13.8 mph - N/A   Clear
4:53 PM 48.9 °F - 41.0 °F 74% 30.03 in 9.0 mi ENE 12.7 mph - N/A   Clear
5:53 PM 48.9 °F - 41.0 °F 74% 30.02 in 9.0 mi East 13.8 mph - N/A   Clear
6:53 PM 48.0 °F - 39.9 °F 74% 30.00 in 10.0 mi ENE 13.8 mph - N/A   Scattered Clouds
7:53 PM 46.9 °F - 41.0 °F 80% 30.02 in 10.0 mi East 11.5 mph - N/A   Overcast
8:53 PM 46.9 °F - 41.0 °F 80% 30.00 in 9.0 mi ENE 11.5 mph - N/A   Overcast
9:53 PM 46.0 °F 41.4 °F 39.9 °F 79% 30.04 in 10.0 mi ENE 9.2 mph - N/A   Overcast
10:53 PM 45.0 °F 40.1 °F 41.0 °F 86% 30.01 in 6.0 mi ENE 9.2 mph - 0.00 in Rain Light Rain